Location: ???
(60.6398°N, 46.9067°E)
Time: 17:56:23
(UTC+00:00)

Cosmos 2333 - Pass Details

Date: 08 December 2019
Orbit: 829 x 867 km, 70.9° (Epoch: 21 January)

Event Time Altitude Azimuth Distance (km) Brightness Sun altitude
Rises 13:58:39 0° 198° (SSW) 3,414 8.0 -14.3°
Reaches altitude 10° 14:01:07 10° 194° (SSW) 2,487 7.1 -14.6°
Maximum altitude 14:06:40 54° 119° (ESE) 1,046 4.4 -15.2°
Enters shadow 14:10:17 22° 51° (NE) 1,813 5.4 -15.7°
